| time (UTC) | temp F | wind direction | speed MPH | gust MPH | rain 1hr in | rain 24hr in | rain mn in | humidity % | barometer mb |
| 20260506222309 | 51 | 54 | 0.0 | 0.0 | 0.00 | 0.00 | 0.00 | 70 | 10.8 |
| 20260506221310 | 51 | 34 | 0.0 | 2.0 | 0.00 | 0.00 | 0.00 | 70 | 10.8 |
| 20260506220309 | 51 | 65 | 0.0 | 1.0 | 0.00 | 0.00 | 0.00 | 70 | 10.7 |
| 20260506215309 | 51 | 75 | 0.0 | 0.0 | 0.00 | 0.00 | 0.00 | 69 | 10.8 |
| 20260506213309 | 52 | 75 | 0.0 | 0.0 | 0.00 | 0.00 | 0.00 | 68 | 10.7 |
| 20260506212309 | 52 | 103 | 0.0 | 0.0 | 0.00 | 0.00 | 0.00 | 67 | 10.6 |
| 20260506211310 | 52 | 119 | 0.0 | 0.0 | 0.00 | 0.00 | 0.00 | 68 | 10.5 |
| 20260506205309 | 52 | 119 | 0.0 | 0.0 | 0.00 | 0.00 | 0.00 | 67 | 10.4 |
| 20260506204309 | 52 | 119 | 0.0 | 0.0 | 0.00 | 0.00 | 0.00 | 66 | 10.4 |
| 20260506203309 | 52 | 119 | 0.0 | 0.0 | 0.00 | 0.00 | 0.00 | 65 | 10.3 |
| 20260506202309 | 52 | 119 | 0.0 | 0.0 | 0.00 | 0.00 | 0.00 | 65 | 10.2 |
| 20260506201309 | 52 | 119 | 0.0 | 0.0 | 0.00 | 0.00 | 0.00 | 65 | 10.2 |
| 20260506194309 | 53 | 119 | 0.0 | 0.0 | 0.00 | 0.00 | 0.00 | 65 | 10.2 |
| 20260506193309 | 53 | 119 | 0.0 | 0.0 | 0.00 | 0.00 | 0.00 | 64 | 10.0 |
| 20260506192310 | 53 | 119 | 0.0 | 0.0 | 0.00 | 0.00 | 0.00 | 64 | 9.6 |
| 20260506191309 | 53 | 119 | 0.0 | 0.0 | 0.00 | 0.00 | 0.00 | 64 | 9.5 |
| 20260506190309 | 53 | 117 | 0.0 | 0.0 | 0.00 | 0.00 | 0.00 | 63 | 9.5 |
| 20260506185310 | 53 | 119 | 0.0 | 0.0 | 0.00 | 0.00 | 0.00 | 63 | 9.3 |
| 20260506184309 | 53 | 119 | 0.0 | 0.0 | 0.00 | 0.00 | 0.00 | 63 | 9.2 |
| 20260506182309 | 54 | 99 | 0.0 | 0.0 | 0.00 | 0.00 | 0.00 | 63 | 9.1 |
| 20260506175309 | 54 | 103 | 0.0 | 3.0 | 0.00 | 0.00 | 0.00 | 63 | 8.9 |
| 20260506174309 | 55 | 96 | 0.0 | 4.0 | 0.00 | 0.00 | 0.00 | 63 | 8.9 |
| 20260506173310 | 55 | 106 | 0.0 | 2.0 | 0.00 | 0.00 | 0.00 | 62 | 8.7 |
| 20260506172309 | 55 | 132 | 0.0 | 6.0 | 0.00 | 0.00 | 0.00 | 62 | 8.6 |
| 20260506165309 | 55 | 90 | 0.0 | 2.0 | 0.00 | 0.00 | 0.00 | 61 | 8.3 |
| 20260506164309 | 55 | 92 | 0.0 | 2.0 | 0.00 | 0.00 | 0.00 | 61 | 8.5 |
| 20260506163310 | 55 | 121 | 0.0 | 3.0 | 0.00 | 0.00 | 0.00 | 61 | 8.5 |
| 20260506162309 | 55 | 92 | 0.0 | 4.0 | 0.00 | 0.00 | 0.00 | 61 | 8.4 |
| 20260506161309 | 55 | 73 | 2.0 | 9.0 | 0.00 | 0.00 | 0.00 | 60 | 8.5 |
| 20260506160310 | 55 | 92 | 1.0 | 8.0 | 0.00 | 0.00 | 0.00 | 61 | 8.5 |
| 20260506155309 | 55 | 108 | 3.0 | 7.0 | 0.00 | 0.00 | 0.00 | 62 | 8.4 |
| 20260506154309 | 55 | 53 | 1.0 | 11.0 | 0.00 | 0.00 | 0.00 | 62 | 8.5 |
| 20260506153309 | 54 | 69 | 0.0 | 9.0 | 0.00 | 0.00 | 0.00 | 62 | 8.4 |
| 20260506152309 | 54 | 52 | 2.0 | 10.0 | 0.00 | 0.00 | 0.00 | 62 | 8.5 |
| 20260506151310 | 54 | 95 | 3.0 | 11.0 | 0.00 | 0.00 | 0.00 | 63 | 8.4 |
| 20260506145309 | 54 | 120 | 2.0 | 10.0 | 0.00 | 0.00 | 0.00 | 62 | 8.4 |
| 20260506143310 | 54 | 140 | 3.0 | 11.0 | 0.00 | 0.00 | 0.00 | 62 | 8.3 |
| 20260506141309 | 54 | 92 | 9.0 | 16.0 | 0.00 | 0.00 | 0.00 | 61 | 8.2 |
| 20260506134309 | 54 | 132 | 7.0 | 19.0 | 0.00 | 0.00 | 0.00 | 59 | 8.1 |
| 20260506133309 | 54 | 46 | 9.0 | 15.0 | 0.00 | 0.00 | 0.00 | 58 | 8.0 |
| 20260506132309 | 54 | 78 | 7.0 | 15.0 | 0.00 | 0.00 | 0.00 | 59 | 8.0 |
| 20260506131310 | 54 | 71 | 2.0 | 11.0 | 0.00 | 0.00 | 0.00 | 59 | 7.9 |
| 20260506124309 | 55 | 62 | 6.0 | 12.0 | 0.00 | 0.00 | 0.00 | 58 | 7.9 |
| 20260506123309 | 55 | 96 | 6.0 | 16.0 | 0.00 | 0.00 | 0.00 | 58 | 7.9 |
| 20260506121309 | 55 | 40 | 6.0 | 14.0 | 0.00 | 0.00 | 0.00 | 55 | 7.7 |
| 20260506115309 | 55 | 63 | 2.0 | 11.0 | 0.00 | 0.00 | 0.00 | 58 | 7.5 |
| 20260506114309 | 55 | 36 | 5.0 | 13.0 | 0.00 | 0.00 | 0.00 | 59 | 7.5 |
| 20260506113309 | 55 | 66 | 5.0 | 9.0 | 0.00 | 0.00 | 0.00 | 59 | 7.6 |
| 20260506112310 | 55 | 91 | 6.0 | 10.0 | 0.00 | 0.00 | 0.00 | 59 | 7.5 |
| 20260506111309 | 55 | 101 | 4.0 | 11.0 | 0.00 | 0.00 | 0.00 | 60 | 7.6 |
| 20260506105309 | 54 | 61 | 4.0 | 12.0 | 0.00 | 0.00 | 0.00 | 62 | 7.6 |
| 20260506104309 | 54 | 30 | 4.0 | 12.0 | 0.00 | 0.00 | 0.00 | 62 | 7.5 |
| 20260506103309 | 54 | 65 | 3.0 | 16.0 | 0.00 | 0.00 | 0.00 | 62 | 7.4 |
| 20260506102309 | 54 | 69 | 7.0 | 15.0 | 0.00 | 0.00 | 0.00 | 61 | 7.3 |
| 20260506101309 | 55 | 32 | 0.0 | 13.0 | 0.00 | 0.00 | 0.00 | 61 | 7.3 |
| 20260506094309 | 56 | 47 | 5.0 | 13.0 | 0.00 | 0.00 | 0.00 | 59 | 7.2 |
| 20260506093309 | 56 | 48 | 6.0 | 13.0 | 0.00 | 0.00 | 0.00 | 58 | 7.0 |
| 20260506092309 | 56 | 86 | 5.0 | 12.0 | 0.00 | 0.00 | 0.00 | 59 | 7.2 |
| 20260506091309 | 56 | 61 | 6.0 | 20.0 | 0.00 | 0.00 | 0.00 | 58 | 7.1 |
| 20260506085309 | 57 | 107 | 9.0 | 18.0 | 0.00 | 0.00 | 0.00 | 59 | 6.9 |
| 20260506084309 | 56 | 55 | 7.0 | 16.0 | 0.00 | 0.00 | 0.00 | 59 | 6.8 |
| 20260506083309 | 55 | 71 | 8.0 | 17.0 | 0.00 | 0.00 | 0.00 | 61 | 6.7 |
| 20260506082309 | 55 | 88 | 9.0 | 17.0 | 0.00 | 0.00 | 0.00 | 60 | 6.6 |
| 20260506081309 | 54 | 64 | 8.0 | 14.0 | 0.00 | 0.00 | 0.00 | 65 | 6.4 |
| 20260506073309 | 53 | 45 | 1.0 | 12.0 | 0.00 | 0.00 | 0.00 | 73 | 6.5 |
| 20260506072309 | 52 | 61 | 4.0 | 11.0 | 0.00 | 0.00 | 0.00 | 73 | 6.4 |
| 20260506071309 | 52 | 64 | 3.0 | 10.0 | 0.00 | 0.00 | 0.00 | 74 | 6.4 |
| 20260506062309 | 51 | 19 | 1.0 | 9.0 | 0.00 | 0.00 | 0.00 | 76 | 6.2 |
| 20260506061309 | 51 | 15 | 2.0 | 11.0 | 0.00 | 0.00 | 0.00 | 77 | 6.0 |
| 20260506044309 | 49 | 13 | 0.0 | 4.0 | 0.00 | 0.00 | 0.00 | 80 | 6.0 |
| 20260506043309 | 49 | 5 | 0.0 | 1.0 | 0.00 | 0.00 | 0.00 | 81 | 6.0 |
| 20260506041310 | 49 | 5 | 0.0 | 1.0 | 0.00 | 0.00 | 0.00 | 82 | 6.0 |
| 20260506035309 | 49 | 22 | 0.0 | 5.0 | 0.00 | 0.00 | 0.00 | 82 | 6.1 |
| 20260506034313 | 49 | 63 | 0.0 | 4.0 | 0.00 | 0.00 | 0.00 | 83 | 6.2 |
| 20260506033309 | 48 | 336 | 0.0 | 9.0 | 0.00 | 0.00 | 0.00 | 83 | 6.3 |
| 20260506032314 | 48 | 22 | 4.0 | 9.0 | 0.00 | 0.00 | 0.00 | 83 | 6.3 |
| 20260506025311 | 48 | 64 | 0.0 | 6.0 | 0.00 | 0.00 | 0.00 | 84 | 6.5 |
| 20260506024313 | 48 | 67 | 1.0 | 11.0 | 0.00 | 0.00 | 0.00 | 84 | 6.6 |
| 20260506022309 | 48 | 57 | 0.0 | 6.0 | 0.00 | 0.00 | 0.00 | 84 | 6.7 |
| 20260506021309 | 48 | 78 | 1.0 | 9.0 | 0.00 | 0.00 | 0.00 | 84 | 6.8 |
| 20260506015309 | 48 | 78 | 1.0 | 7.0 | 0.00 | 0.00 | 0.00 | 84 | 6.8 |
| 20260506014309 | 48 | 26 | 1.0 | 10.0 | 0.00 | 0.00 | 0.00 | 83 | 6.8 |
| 20260506013310 | 48 | 76 | 3.0 | 9.0 | 0.00 | 0.00 | 0.00 | 82 | 6.9 |
| 20260506012309 | 49 | 53 | 1.0 | 12.0 | 0.00 | 0.00 | 0.00 | 81 | 7.0 |
| 20260506011312 | 49 | 89 | 4.0 | 12.0 | 0.00 | 0.00 | 0.00 | 79 | 7.1 |
| 20260506005309 | 50 | 67 | 7.0 | 14.0 | 0.00 | 0.00 | 0.00 | 77 | 7.2 |
| 20260506004309 | 50 | 78 | 4.0 | 11.0 | 0.00 | 0.00 | 0.00 | 77 | 7.3 |
| 20260506002309 | 50 | 163 | 2.0 | 7.0 | 0.00 | 0.00 | 0.00 | 76 | 7.3 |
| 20260506001309 | 50 | 17 | 0.0 | 10.0 | 0.00 | 0.00 | 0.00 | 76 | 7.3 |
| 20260505235309 | 50 | 27 | 2.0 | 7.0 | 0.00 | 0.00 | 0.00 | 76 | 7.4 |
| 20260505234310 | 50 | 30 | 1.0 | 11.0 | 0.00 | 0.00 | 0.00 | 76 | 7.5 |
| 20260505231309 | 50 | 80 | 2.0 | 12.0 | 0.00 | 0.00 | 0.00 | 74 | 7.6 |
| 20260505225309 | 51 | 46 | 2.0 | 13.0 | 0.00 | 0.00 | 0.00 | 74 | 7.7 |